Cairns, Queensland

2:36 AM AEST on February 08, 2016 (GMT +1000)
Cairns International

Weather History for YBCS - January, 2012

Change the Weather History Date:

Tuesday, January 31, 2012

  Actual Average Record
Temperature  
Mean Temperature 84 °F -  
Max Temperature 91 °F 88 °F 91 °F (1998)
Min Temperature 78 °F 74 °F 71 °F (2003)
Cooling Degree Days 20    
Growing Degree Days 34 (Base 50)    
Moisture  
Dew Point 77 °F    
Average Humidity 80    
Maximum Humidity 99    
Minimum Humidity 52    
Precipitation  
Precipitation 0.55 in 0.56 in - ()
Sea Level Pressure  
Sea Level Pressure 29.58 in    
Wind  
Wind Speed 5 mph ()    
Max Wind Speed 15 mph    
Max Gust Speed -    
Visibility 7.0 miles    
Events Rain    
Averages and records for this station are not official NWS values.
T = Trace of Precipitation, MM = Missing Value Source: Averaged Metar Reports

Daily Weather History Graph

Daily Weather History Graph

Search for Another Location

Airport or City:

Trip Planner

Search our weather history database for the weather conditions in past years. The results will help you decide how hot, cold, wet, or windy it might be!

Date:

Astronomy

Jan. 31, 2012 Rise Set
Actual Time 6:04 AM AEST 6:55 PM AEST
Civil Twilight 5:41 AM AEST 7:18 PM AEST
Nautical Twilight 5:14 AM AEST 7:45 PM AEST
Astronomical Twilight 4:47 AM AEST 8:13 PM AEST
Moon 12:26 PM AEST (1/31) No Moon Set
Length of Visible Light 13h 37m
Length of Day
12h 51m
Waxing Crescent, 49% of the Moon is Illuminated
Jan 31
Waxing Crescent
Jan 31
First Quarter
Feb 8
Full
Feb 15
Last Quarter
Feb 22
New

Hourly Weather History & Observations

Time (AEST) Temp. Heat Index Dew Point Humidity Pressure Visibility Wind Dir Wind Speed Gust Speed Precip Events Conditions
12:00 AM 79 °F - 78 °F 94% 29.63 in - Calm Calm - -  
12:00 AM 78.8 °F - 77.0 °F 94% 29.62 in 6.2 mi Calm Calm - N/A   Partly Cloudy
12:30 AM 78.8 °F - 77.0 °F 94% 29.59 in 6.2 mi Calm Calm - N/A   Partly Cloudy
1:00 AM 78 °F - 78 °F 99% 29.61 in - West 1.2 mph - -  
1:00 AM 78.8 °F - 77.0 °F 94% 29.59 in 6.2 mi West 1.2 mph - N/A   Partly Cloudy
1:30 AM 78.8 °F - 77.0 °F 94% 29.59 in 6.2 mi SSE 8.1 mph - N/A   Partly Cloudy
2:00 AM 78.8 °F - 77.0 °F 94% 29.56 in 6.2 mi WSW 2.3 mph - N/A   Partly Cloudy
2:30 AM 78.8 °F - 77.0 °F 94% 29.56 in 6.2 mi SSE 11.5 mph - N/A   Partly Cloudy
3:00 AM 79 °F - 77 °F 92% 29.58 in - WSW 4.6 mph - -  
3:00 AM 78.8 °F - 77.0 °F 94% 29.56 in 6.2 mi WSW 4.6 mph - N/A   Partly Cloudy
3:30 AM 78.8 °F - 77.0 °F 94% 29.56 in 6.2 mi WNW 1.2 mph - N/A   Partly Cloudy
4:00 AM 78 °F - 77 °F 96% 29.58 in - West 2.3 mph - -  
4:00 AM 78.8 °F - 77.0 °F 94% 29.56 in 6.2 mi West 2.3 mph - N/A   Partly Cloudy
4:30 AM 78.8 °F - 77.0 °F 94% 29.56 in 6.2 mi WNW 3.5 mph - N/A   Mostly Cloudy
5:00 AM 78.8 °F - 77.0 °F 94% 29.56 in 6.2 mi SSE 5.8 mph - N/A   Mostly Cloudy
5:30 AM 78.8 °F - 77.0 °F 94% 29.56 in 6.2 mi SSW 6.9 mph - N/A   Mostly Cloudy
6:00 AM 80 °F - 76 °F 84% 29.59 in - South 10.4 mph - -  
6:00 AM 78.8 °F - 77.0 °F 94% 29.56 in 6.2 mi South 10.4 mph - N/A   Mostly Cloudy
6:30 AM 80.6 °F 86.2 °F 75.2 °F 84% 29.59 in 6.2 mi SW 6.9 mph - N/A   Mostly Cloudy
7:00 AM 80 °F - 77 °F 86% 29.60 in - ENE 2.3 mph - -  
7:00 AM 80.6 °F 87.1 °F 77.0 °F 89% 29.59 in 6.2 mi ENE 2.3 mph - N/A   Mostly Cloudy
7:30 AM 80.6 °F 87.1 °F 77.0 °F 89% 29.59 in 6.2 mi SE 4.6 mph - N/A   Mostly Cloudy
8:00 AM 82.4 °F 90.9 °F 77.0 °F 84% 29.59 in 6.2 mi NNW 4.6 mph - N/A   Mostly Cloudy
8:30 AM 84.2 °F 94.1 °F 77.0 °F 79% 29.62 in 6.2 mi Calm Calm - N/A   Mostly Cloudy
9:00 AM 86 °F - 76 °F 65% 29.62 in 19 mi WNW 2.3 mph - -   Partly Cloudy
9:00 AM 86.0 °F 95.1 °F 75.2 °F 70% 29.62 in 6.2 mi WNW 2.3 mph - N/A   Mostly Cloudy
9:30 AM 87.8 °F 99.7 °F 77.0 °F 70% 29.62 in 6.2 mi SSW 2.3 mph - N/A   Mostly Cloudy
10:00 AM 89 °F - 75 °F 56% 29.64 in - ESE 3.5 mph - -  
10:00 AM 87.8 °F 97.6 °F 75.2 °F 66% 29.62 in 6.2 mi ESE 3.5 mph - N/A   Mostly Cloudy
10:30 AM 87.8 °F 99.7 °F 77.0 °F 70% 29.62 in 6.2 mi NE 6.9 mph - N/A   Mostly Cloudy
11:00 AM 87.8 °F 102.5 °F 78.8 °F 75% 29.62 in 6.2 mi NE 9.2 mph - N/A   Mostly Cloudy
11:30 AM 87.8 °F 102.5 °F 78.8 °F 75% 29.59 in 6.2 mi NE 10.4 mph - N/A   Mostly Cloudy
12:00 PM 88 °F - 78 °F 67% 29.61 in 19 mi NE 9.2 mph - -   Partly Cloudy
12:00 PM 87.8 °F 102.5 °F 78.8 °F 75% 29.59 in 6.2 mi NE 9.2 mph - N/A   Mostly Cloudy
12:30 PM 89.6 °F 99.8 °F 75.2 °F 62% 29.59 in 6.2 mi ENE 11.5 mph - N/A   Mostly Cloudy
1:00 PM 90 °F - 76 °F 56% 29.58 in - ENE 12.7 mph - -  
1:00 PM 89.6 °F 102.2 °F 77.0 °F 66% 29.56 in 6.2 mi ENE 12.7 mph - N/A   Mostly Cloudy
1:30 PM 91.4 °F 102.5 °F 75.2 °F 59% 29.56 in 6.2 mi NE 11.5 mph - N/A   Mostly Cloudy
2:00 PM 89.6 °F 102.2 °F 77.0 °F 66% 29.53 in 6.2 mi ENE 11.5 mph - N/A   Mostly Cloudy
2:30 PM 89.6 °F 99.8 °F 75.2 °F 62% 29.53 in 6.2 mi ENE 11.5 mph - N/A   Overcast
3:00 PM 91 °F - 75 °F 52% 29.53 in 19 mi ENE 15.0 mph - -   Partly Cloudy
3:00 PM 91.4 °F 102.5 °F 75.2 °F 59% 29.53 in 6.2 mi ENE 15.0 mph - N/A   Overcast
3:30 PM 89.6 °F 99.8 °F 75.2 °F 62% 29.53 in 6.2 mi ENE 15.0 mph - N/A   Overcast
4:00 PM 88 °F - 76 °F 59% 29.53 in - East 15.0 mph - -  
4:00 PM 87.8 °F 97.6 °F 75.2 °F 66% 29.50 in 6.2 mi East 15.0 mph - N/A   Overcast
4:30 PM 87.8 °F 97.6 °F 75.2 °F 66% 29.50 in 6.2 mi East 12.7 mph - N/A   Overcast
5:00 PM 87.8 °F 97.6 °F 75.2 °F 66% 29.53 in 6.2 mi East 9.2 mph - N/A   Overcast
5:30 PM 86.0 °F 95.1 °F 75.2 °F 70% 29.53 in 6.2 mi East 10.4 mph - N/A   Mostly Cloudy
6:00 PM 86 °F - 77 °F 67% 29.55 in 16 mi East 8.1 mph - -   Partly Cloudy
6:00 PM 86.0 °F 96.9 °F 77.0 °F 74% 29.53 in 6.2 mi East 8.1 mph - N/A   Overcast
6:30 PM 86.0 °F 96.9 °F 77.0 °F 74% 29.56 in 6.2 mi East 9.2 mph - N/A   Mostly Cloudy
7:00 PM 85 °F - 76 °F 68% 29.58 in - ESE 8.1 mph - -  
7:00 PM 86.0 °F 96.9 °F 77.0 °F 74% 29.56 in 6.2 mi ESE 8.1 mph - N/A   Overcast
7:30 PM 82.4 °F 89.5 °F 75.2 °F 79% 29.56 in 6.2 mi SE 8.1 mph - N/A   Mostly Cloudy
8:00 PM 82.4 °F 89.5 °F 75.2 °F 79% 29.56 in 6.2 mi SSE 5.8 mph - N/A   Mostly Cloudy
8:30 PM 82.4 °F 89.5 °F 75.2 °F 79% 29.56 in 6.2 mi South 2.3 mph - N/A   Mostly Cloudy
9:00 PM 82 °F - 76 °F 76% 29.60 in 6 mi SSE 9.2 mph - -   Overcast
9:00 PM 82.4 °F 89.5 °F 75.2 °F 79% 29.59 in 6.2 mi SSE 9.2 mph - N/A   Mostly Cloudy
9:15 PM 80.6 °F 87.1 °F 77.0 °F 89% 29.59 in 3.7 mi SSE 13.8 mph - N/A Rain Light Rain Showers
9:30 PM 78.8 °F - 77.0 °F 94% 29.59 in 3.1 mi SSE 12.7 mph - N/A Rain Light Rain Showers
9:52 PM 78.8 °F - 77.0 °F 94% 29.59 in 5.6 mi South 6.9 mph - N/A   Mostly Cloudy
10:00 PM 79 °F - 77 °F 92% 29.61 in - SSE 5.8 mph - -  
10:00 PM 78.8 °F - 77.0 °F 94% 29.59 in 6.2 mi SSE 5.8 mph - N/A   Mostly Cloudy
10:30 PM 78.8 °F - 77.0 °F 94% 29.59 in 6.2 mi South 4.6 mph - N/A   Mostly Cloudy
11:00 PM 78.8 °F - 77.0 °F 94% 29.59 in 6.2 mi SSE 5.8 mph - N/A   Mostly Cloudy
11:30 PM 80.6 °F 87.1 °F 77.0 °F 89% 29.59 in 6.2 mi SE 6.9 mph - N/A   Scattered Clouds